GW1239 Weather Reports


time (UTC)temp
F
wind
direction
speed
knots
gust
knots
rain 1hr
in
rain 24hr
in
rain mn
in
humidity
%
barometer
mb
20260504195039 74 322 2.6 6.1 0.00 0.01 0.01 37 1010.0
20260504194519 73 285 2.6 5.2 0.01 0.01 0.01 37 1010.0
20260504194019 73 347 2.6 7.8 0.01 0.01 0.01 36 1010.0
20260504193519 73 92 2.6 6.1 0.01 0.01 0.01 37 1010.1
20260504193019 73 76 2.6 6.1 0.01 0.01 0.01 37 1010.2
20260504192658 73 345 3.5 7.8 0.01 0.01 0.01 37 1010.1
20260504192017 73 331 1.7 6.1 0.01 0.01 0.01 37 1010.2
20260504191520 73 349 3.5 7.0 0.01 0.01 0.01 36 1010.3
20260504191040 73 70 2.6 7.0 0.01 0.01 0.01 36 1010.3
20260504190540 73 215 1.7 7.0 0.01 0.01 0.01 37 1010.4
20260504190020 73 350 1.7 4.3 0.01 0.01 0.01 38 1010.5
20260504185520 72 347 2.6 5.2 0.01 0.01 0.01 39 1010.6
20260504185017 71 122 2.6 5.2 0.01 0.01 0.01 38 1010.6
20260504184517 72 142 2.6 7.0 0.00 0.01 0.00 37 1010.7
20260504184018 71 353 1.7 7.0 0.00 0.01 0.00 38 1010.8
20260504183537 71 10 2.6 7.8 0.00 0.01 0.00 38 1010.9
20260504183038 71 336 4.3 9.6 0.00 0.01 0.00 38 1011.0
20260504182518 71 323 3.5 7.8 0.00 0.01 0.00 38 1011.0
20260504182018 71 347 3.5 9.6 0.00 0.01 0.00 38 1011.1
20260504181521 71 336 3.5 8.7 0.00 0.01 0.00 39 1011.1
20260504181021 70 333 3.5 7.8 0.00 0.01 0.00 38 1011.2
20260504180538 70 89 2.6 7.8 0.00 0.01 0.00 39 1011.3
20260504180018 70 332 2.6 7.8 0.00 0.01 0.00 40 1011.3
20260504175518 70 357 3.5 9.6 0.00 0.01 0.00 39 1011.4
20260504175018 70 357 2.6 6.1 0.00 0.01 0.00 39 1011.6
20260504174518 71 60 3.5 7.8 0.00 0.01 0.00 39 1011.7
20260504174019 70 107 2.6 7.8 0.00 0.01 0.00 39 1011.6
20260504173538 70 326 2.6 7.8 0.00 0.01 0.00 40 1011.7
20260504173019 70 66 2.6 7.0 0.00 0.01 0.00 41 1011.7
20260504172519 69 320 2.6 6.1 0.00 0.01 0.00 41 1011.7
20260504172018 69 94 2.6 7.0 0.00 0.01 0.00 40 1011.7
20260504171519 69 111 2.6 8.7 0.00 0.01 0.00 39 1011.9
20260504171019 70 111 2.6 8.7 0.00 0.01 0.00 40 1011.9
20260504170519 70 347 2.6 7.8 0.00 0.01 0.00 39 1012.0
20260504151019 65 122 3.5 7.0 0.00 0.01 0.00 44 1013.3
20260504150558 65 105 3.5 7.8 0.00 0.01 0.00 44 1013.2
20260504141019 63 143 2.6 5.2 0.00 0.01 0.00 53 1013.5
20260504140519 63 82 1.7 7.0 0.00 0.01 0.00 52 1013.5
20260504130540 59 121 1.7 5.2 0.00 0.01 0.00 58 1014.1
20260504110525 45 125 1.7 2.6 0.00 0.01 0.00 81 1014.8
20260504100518 43 136 0.9 4.3 0.00 0.01 0.00 76 1014.3
20260504081517 42 139 0.9 2.6 0.00 0.01 0.00 75 1014.1
20260504081017 42 137 1.7 3.5 0.00 0.01 0.00 74 1014.1
20260504080517 42 140 1.7 2.6 0.00 0.01 0.00 76 1014.1
20260504050520 44 141 1.7 2.6 0.00 0.01 0.00 69 1013.8
20260504050020 44 139 0.9 1.7 0.00 0.01 0.00 69 1013.8
20260504045520 44 135 1.7 2.6 0.00 0.01 0.00 70 1013.9
20260504045020 45 141 1.7 2.6 0.00 0.01 0.00 69 1013.8
20260504044520 45 138 1.7 2.6 0.00 0.01 0.00 70 1013.8
20260504044057 45 135 1.7 2.6 0.00 0.01 0.00 69 1013.7
20260504043517 45 137 1.7 2.6 0.00 0.01 0.00 69 1013.6
20260504043038 45 136 1.7 2.6 0.00 0.01 0.00 69 1013.6
20260504042518 45 138 1.7 2.6 0.00 0.01 0.00 69 1013.5
20260504042017 45 133 1.7 2.6 0.00 0.01 0.00 70 1013.5
20260504041558 45 133 1.7 2.6 0.00 0.01 0.00 69 1013.4
20260504041018 45 137 1.7 2.6 0.00 0.01 0.00 69 1013.4
20260504040521 45 135 1.7 2.6 0.00 0.01 0.00 68 1013.3
20260504040018 45 136 1.7 2.6 0.00 0.01 0.00 69 1013.3
20260504035538 45 135 1.7 2.6 0.00 0.01 0.01 68 1013.3
20260504035038 45 138 0.9 2.6 0.00 0.01 0.01 69 1013.3
20260504034518 45 139 1.7 2.6 0.00 0.01 0.01 69 1013.2
20260504034018 45 133 1.7 2.6 0.00 0.01 0.01 70 1013.2
20260504033518 45 142 1.7 2.6 0.00 0.01 0.01 69 1013.2
20260504033018 45 135 1.7 2.6 0.00 0.01 0.01 68 1013.2
20260504032559 46 136 1.7 2.6 0.00 0.01 0.01 68 1013.2
20260504032019 46 136 1.7 2.6 0.00 0.01 0.01 67 1013.1
20260504031519 46 133 1.7 2.6 0.00 0.01 0.01 67 1013.1
20260504031019 46 134 1.7 2.6 0.00 0.01 0.01 67 1013.0
20260504030520 46 135 1.7 2.6 0.00 0.01 0.01 67 1013.1
20260504030019 46 135 1.7 2.6 0.00 0.01 0.01 65 1013.0
20260504025519 46 142 1.7 2.6 0.00 0.01 0.01 65 1013.0
20260504025039 46 128 1.7 3.5 0.00 0.01 0.01 66 1013.0
20260504024539 46 138 1.7 2.6 0.00 0.01 0.01 67 1013.1
20260504024019 46 138 1.7 3.5 0.00 0.01 0.01 65 1013.1
20260504023517 46 135 1.7 2.6 0.00 0.01 0.01 67 1013.1
20260504023036 46 137 1.7 2.6 0.00 0.01 0.01 66 1013.1
20260504022520 47 143 1.7 2.6 0.00 0.01 0.01 65 1013.1
20260504022020 47 140 1.7 3.5 0.00 0.01 0.01 64 1013.0
20260504021520 47 135 1.7 2.6 0.00 0.01 0.01 65 1013.0
20260504021020 47 135 1.7 3.5 0.00 0.01 0.01 65 1013.0
20260504020520 47 140 1.7 2.6 0.00 0.01 0.01 65 1013.0
20260504020020 47 142 1.7 1.7 0.00 0.01 0.01 65 1013.0
20260504015520 47 148 1.7 3.5 0.00 0.01 0.01 65 1013.0
20260504015018 47 138 1.7 2.6 0.00 0.01 0.01 64 1012.9
20260504014517 47 139 1.7 3.5 0.00 0.01 0.01 65 1012.9
20260504014057 47 138 1.7 2.6 0.00 0.01 0.01 63 1012.9
20260504013517 47 140 1.7 2.6 0.00 0.01 0.01 63 1012.9
20260504013018 48 145 1.7 2.6 0.00 0.01 0.01 63 1012.8
20260504012541 48 138 1.7 2.6 0.00 0.01 0.01 63 1012.8
20260504012021 48 139 1.7 3.5 0.00 0.01 0.01 62 1012.7
20260504011521 48 141 1.7 2.6 0.00 0.01 0.01 62 1012.6
20260504011018 48 141 1.7 2.6 0.00 0.01 0.01 64 1012.5
20260504010518 48 141 1.7 2.6 0.00 0.01 0.01 63 1012.4
20260504010018 48 138 1.7 2.6 0.00 0.01 0.01 64 1012.3
20260504005518 49 144 1.7 2.6 0.00 0.01 0.01 62 1012.3
20260504005038 49 144 1.7 2.6 0.00 0.01 0.01 59 1012.3
20260504004518 49 143 1.7 2.6 0.00 0.01 0.01 58 1012.3
20260504004018 49 142 1.7 2.6 0.00 0.01 0.01 59 1012.2
20260504003518 50 144 1.7 2.6 0.00 0.01 0.01 60 1012.1
20260504003019 50 139 1.7 2.6 0.00 0.01 0.01 58 1012.1
20260504002539 51 143 1.7 1.7 0.00 0.01 0.01 57 1012.1
20260504002019 51 143 1.7 2.6 0.00 0.01 0.01 55 1012.0
20260504001519 51 141 1.7 2.6 0.00 0.01 0.01 57 1011.9
20260504001019 52 137 1.7 2.6 0.00 0.01 0.01 56 1011.8
20260504000559 52 141 1.7 2.6 0.00 0.01 0.01 55 1011.8
20260504000019 53 139 0.9 2.6 0.00 0.01 0.01 53 1011.7
20260503235519 53 145 0.9 2.6 0.00 0.01 0.01 52 1011.7
20260503235019 54 134 0.9 2.6 0.00 0.01 0.01 52 1011.6
20260503234519 54 133 0.9 2.6 0.00 0.01 0.01 50 1011.6
20260503234040 55 127 0.9 2.6 0.00 0.02 0.01 48 1011.6
20260503233516 56 134 0.9 2.6 0.00 0.02 0.01 47 1011.6
20260503233016 56 153 0.9 3.5 0.00 0.02 0.01 45 1011.6
20260503232520 57 155 0.9 4.3 0.00 0.02 0.01 44 1011.6
20260503232020 58 118 0.9 5.2 0.00 0.02 0.01 41 1011.6
20260503231519 58 329 0.9 2.6 0.00 0.02 0.01 39 1011.6
20260503231020 58 352 1.7 4.3 0.00 0.02 0.01 40 1011.5
20260503230520 59 296 0.9 2.6 0.00 0.02 0.01 38 1011.5
20260503230040 59 318 0.9 2.6 0.00 0.02 0.01 36 1011.4
20260503225517 59 342 1.7 4.3 0.00 0.02 0.01 37 1011.4
20260503225037 59 326 1.7 5.2 0.00 0.02 0.01 36 1011.4
20260503224518 59 322 1.7 6.1 0.00 0.02 0.01 37 1011.4
20260503224017 60 331 1.7 4.3 0.00 0.02 0.01 36 1011.3
20260503223517 60 329 0.9 5.2 0.00 0.02 0.01 34 1011.3
20260503223018 60 342 1.7 2.6 0.00 0.02 0.01 35 1011.3
20260503222521 60 347 1.7 4.3 0.00 0.02 0.01 34 1011.3
20260503222021 60 286 1.7 3.5 0.00 0.02 0.01 35 1011.3
20260503221518 60 309 1.7 4.3 0.00 0.02 0.01 36 1011.3
20260503221018 60 288 2.6 6.1 0.00 0.02 0.01 34 1011.4
20260503220518 61 354 1.7 4.3 0.00 0.02 0.01 33 1011.4
20260503220018 61 300 1.7 5.2 0.00 0.02 0.01 32 1011.4
20260503215518 61 332 1.7 3.5 0.00 0.02 0.01 32 1011.4
20260503215018 61 269 2.6 7.8 0.00 0.02 0.01 33 1011.4
20260503214518 61 299 1.7 5.2 0.00 0.02 0.01 34 1011.4
20260503214018 61 320 1.7 6.1 0.00 0.02 0.01 32 1011.4
20260503213518 60 305 2.6 7.8 0.00 0.02 0.01 34 1011.4
20260503213019 60 322 2.6 7.0 0.00 0.02 0.01 34 1011.3
20260503212539 60 319 1.7 6.1 0.00 0.02 0.01 34 1011.3
20260503212019 60 323 2.6 6.1 0.00 0.02 0.01 34 1011.3
20260503211519 60 346 2.6 7.0 0.00 0.02 0.01 33 1011.3
20260503211019 60 339 2.6 7.8 0.00 0.02 0.01 35 1011.4
20260503210519 60 304 2.6 8.7 0.00 0.02 0.01 35 1011.4
20260503210019 60 309 1.7 3.5 0.00 0.02 0.01 35 1011.5
20260503205559 60 309 2.6 7.8 0.00 0.02 0.01 35 1011.6
20260503205019 60 346 2.6 5.2 0.00 0.02 0.01 34 1011.6
20260503204519 60 326 2.6 7.0 0.00 0.02 0.01 34 1011.5
20260503204017 60 305 2.6 7.0 0.00 0.02 0.01 36 1011.5
20260503203516 60 319 1.7 3.5 0.01 0.02 0.01 36 1011.5
20260503203017 60 327 3.5 8.7 0.01 0.02 0.01 34 1011.5
20260503202520 60 348 2.6 6.1 0.01 0.02 0.01 34 1011.5
20260503202020 59 320 2.6 5.2 0.01 0.02 0.01 37 1011.5
20260503201520 58 341 2.6 6.1 0.01 0.02 0.01 37 1011.6
20260503201020 58 324 2.6 5.2 0.01 0.02 0.01 36 1011.6
20260503200520 58 316 2.6 8.7 0.01 0.02 0.01 35 1011.6
20260503200020 58 339 3.5 7.0 0.01 0.02 0.01 36 1011.8
20260503195517 58 324 2.6 5.2 0.01 0.02 0.01 36 1011.7